History Data

Date (GMT-7:00) CPM ACPM uSv/h Latitude Longitude Altitude CO CO2 TVOC HCHO Air Pressure Temperature Humidity Type
2026-05-01 22:37:21 20 18.10 0.100000 41.649648 41.62752893 0 0 0 0 0 0 0 0 STD5.60
2026-05-01 22:32:19 25 19.60 0.125000 41.649648 41.62752893 0 0 0 0 0 0 0 0 STD5.60
2026-05-01 22:27:16 29 20.10 0.145000 41.649648 41.62752893 0 0 0 0 0 0 0 0 STD5.60
2026-05-01 22:22:14 18 18.60 0.090000 41.649648 41.62752893 0 0 0 0 0 0 0 0 STD5.60
2026-05-01 22:17:13 19 18.90 0.095000 41.649648 41.62752893 0 0 0 0 0 0 0 0 STD5.60
2026-05-01 22:12:10 18 20.50 0.090000 41.649648 41.62752893 0 0 0 0 0 0 0 0 STD5.60
2026-05-01 22:07:08 15 20.60 0.075000 41.649648 41.62752893 0 0 0 0 0 0 0 0 STD5.60
2026-05-01 22:02:03 18 18.00 0.090000 41.649648 41.62752893 0 0 0 0 0 0 0 0 STD5.60
2026-05-01 21:57:01 15 17.80 0.075000 41.649648 41.62752893 0 0 0 0 0 0 0 0 STD5.60
2026-05-01 21:51:59 19 17.50 0.095000 41.649648 41.62752893 0 0 0 0 0 0 0 0 STD5.60
2026-05-01 21:46:57 18 16.90 0.090000 41.649648 41.62752893 0 0 0 0 0 0 0 0 STD5.60
2026-05-01 21:41:54 20 19.00 0.100000 41.649648 41.62752893 0 0 0 0 0 0 0 0 STD5.60
2026-05-01 21:36:52 25 19.90 0.125000 41.649648 41.62752893 0 0 0 0 0 0 0 0 STD5.60
2026-05-01 21:31:50 13 19.90 0.065000 41.649648 41.62752893 0 0 0 0 0 0 0 0 STD5.60
2026-05-01 21:26:48 20 16.70 0.100000 41.649648 41.62752893 0 0 0 0 0 0 0 0 STD5.60
2026-05-01 21:21:46 11 15.00 0.055000 41.649648 41.62752893 0 0 0 0 0 0 0 0 STD5.60
2026-05-01 21:16:44 14 15.40 0.070000 41.649648 41.62752893 0 0 0 0 0 0 0 0 STD5.60
2026-05-01 21:11:42 13 15.90 0.065000 41.649648 41.62752893 0 0 0 0 0 0 0 0 STD5.60
2026-05-01 21:06:40 22 17.20 0.110000 41.649648 41.62752893 0 0 0 0 0 0 0 0 STD5.60
2026-05-01 21:01:37 24 16.70 0.120000 41.649648 41.62752893 0 0 0 0 0 0 0 0 STD5.60
2026-05-01 20:56:33 12 18.10 0.060000 41.649648 41.62752893 0 0 0 0 0 0 0 0 STD5.60
2026-05-01 20:51:31 17 21.30 0.085000 41.649648 41.62752893 0 0 0 0 0 0 0 0 STD5.60
2026-05-01 20:46:28 26 19.80 0.130000 41.649648 41.62752893 0 0 0 0 0 0 0 0 STD5.60
2026-05-01 20:41:26 21 17.20 0.105000 41.649648 41.62752893 0 0 0 0 0 0 0 0 STD5.60
2026-05-01 20:36:24 12 17.30 0.060000 41.649648 41.62752893 0 0 0 0 0 0 0 0 STD5.60
2026-05-01 20:31:23 16 19.10 0.080000 41.649648 41.62752893 0 0 0 0 0 0 0 0 STD5.60
2026-05-01 20:26:20 19 18.10 0.095000 41.649648 41.62752893 0 0 0 0 0 0 0 0 STD5.60
2026-05-01 20:21:18 15 17.20 0.075000 41.649648 41.62752893 0 0 0 0 0 0 0 0 STD5.60
2026-05-01 20:16:16 19 19.10 0.095000 41.649648 41.62752893 0 0 0 0 0 0 0 0 STD5.60
2026-05-01 20:11:13 21 18.40 0.105000 41.649648 41.62752893 0 0 0 0 0 0 0 0 STD5.60
2026-05-01 20:06:11 19 17.20 0.095000 41.649648 41.62752893 0 0 0 0 0 0 0 0 STD5.60
2026-05-01 20:00:53 26 17.60 0.130000 41.649648 41.62752893 0 0 0 0 0 0 0 0 STD5.60
2026-05-01 19:55:51 15 18.50 0.075000 41.649648 41.62752893 0 0 0 0 0 0 0 0 STD5.60
2026-05-01 19:50:48 15 18.70 0.075000 41.649648 41.62752893 0 0 0 0 0 0 0 0 STD5.60
2026-05-01 19:45:46 25 17.20 0.125000 41.649648 41.62752893 0 0 0 0 0 0 0 0 STD5.60
2026-05-01 19:40:44 14 17.40 0.070000 41.649648 41.62752893 0 0 0 0 0 0 0 0 STD5.60
2026-05-01 19:35:42 22 17.00 0.110000 41.649648 41.62752893 0 0 0 0 0 0 0 0 STD5.60
2026-05-01 19:30:40 20 16.70 0.100000 41.649648 41.62752893 0 0 0 0 0 0 0 0 STD5.60
2026-05-01 19:25:37 15 17.70 0.075000 41.649648 41.62752893 0 0 0 0 0 0 0 0 STD5.60
2026-05-01 19:20:35 18 16.30 0.090000 41.649648 41.62752893 0 0 0 0 0 0 0 0 STD5.60
2026-05-01 19:15:33 11 15.20 0.055000 41.649648 41.62752893 0 0 0 0 0 0 0 0 STD5.60
2026-05-01 19:10:31 16 17.30 0.080000 41.649648 41.62752893 0 0 0 0 0 0 0 0 STD5.60
2026-05-01 19:05:29 14 17.60 0.070000 41.649648 41.62752893 0 0 0 0 0 0 0 0 STD5.60
2026-05-01 19:00:25 15 17.80 0.075000 41.649648 41.62752893 0 0 0 0 0 0 0 0 STD5.60
2026-05-01 18:55:23 19 18.90 0.095000 41.649648 41.62752893 0 0 0 0 0 0 0 0 STD5.60
2026-05-01 18:50:21 19 17.50 0.095000 41.649648 41.62752893 0 0 0 0 0 0 0 0 STD5.60
2026-05-01 18:45:18 16 17.30 0.080000 41.649648 41.62752893 0 0 0 0 0 0 0 0 STD5.60
2026-05-01 18:40:16 18 17.00 0.090000 41.649648 41.62752893 0 0 0 0 0 0 0 0 STD5.60
2026-05-01 18:35:14 12 17.90 0.060000 41.649648 41.62752893 0 0 0 0 0 0 0 0 STD5.60
2026-05-01 18:30:13 12 19.40 0.060000 41.649648 41.62752893 0 0 0 0 0 0 0 0 STD5.60
2026-05-01 18:25:10 19 18.60 0.095000 41.649648 41.62752893 0 0 0 0 0 0 0 0 STD5.60
2026-05-01 18:20:08 16 17.80 0.080000 41.649648 41.62752893 0 0 0 0 0 0 0 0 STD5.60
2026-05-01 18:15:06 16 18.20 0.080000 41.649648 41.62752893 0 0 0 0 0 0 0 0 STD5.60
2026-05-01 18:10:04 22 17.10 0.110000 41.649648 41.62752893 0 0 0 0 0 0 0 0 STD5.60
2026-05-01 18:05:02 9 16.50 0.045000 41.649648 41.62752893 0 0 0 0 0 0 0 0 STD5.60
2026-05-01 17:59:58 18 18.40 0.090000 41.649648 41.62752893 0 0 0 0 0 0 0 0 STD5.60
2026-05-01 17:54:56 23 16.50 0.115000 41.649648 41.62752893 0 0 0 0 0 0 0 0 STD5.60
2026-05-01 17:49:54 14 15.50 0.070000 41.649648 41.62752893 0 0 0 0 0 0 0 0 STD5.60
2026-05-01 17:44:52 17 18.00 0.085000 41.649648 41.62752893 0 0 0 0 0 0 0 0 STD5.60
2026-05-01 17:39:50 18 19.80 0.090000 41.649648 41.62752893 0 0 0 0 0 0 0 0 STD5.60
2026-05-01 17:34:48 23 18.60 0.115000 41.649648 41.62752893 0 0 0 0 0 0 0 0 STD5.60
2026-05-01 17:29:46 16 17.40 0.080000 41.649648 41.62752893 0 0 0 0 0 0 0 0 STD5.60
2026-05-01 17:24:44 20 19.60 0.100000 41.649648 41.62752893 0 0 0 0 0 0 0 0 STD5.60
2026-05-01 17:19:42 17 18.70 0.085000 41.649648 41.62752893 0 0 0 0 0 0 0 0 STD5.60
2026-05-01 17:14:40 17 16.90 0.085000 41.649648 41.62752893 0 0 0 0 0 0 0 0 STD5.60
2026-05-01 17:09:38 15 15.20 0.075000 41.649648 41.62752893 0 0 0 0 0 0 0 0 STD5.60
2026-05-01 17:04:36 17 13.20 0.085000 41.649648 41.62752893 0 0 0 0 0 0 0 0 STD5.60
2026-05-01 16:59:32 16 16.40 0.080000 41.649648 41.62752893 0 0 0 0 0 0 0 0 STD5.60
2026-05-01 16:54:30 21 18.70 0.105000 41.649648 41.62752893 0 0 0 0 0 0 0 0 STD5.60
2026-05-01 16:49:28 23 18.40 0.115000 41.649648 41.62752893 0 0 0 0 0 0 0 0 STD5.60
2026-05-01 16:44:26 19 17.50 0.095000 41.649648 41.62752893 0 0 0 0 0 0 0 0 STD5.60
2026-05-01 16:39:24 14 16.50 0.070000 41.649648 41.62752893 0 0 0 0 0 0 0 0 STD5.60
2026-05-01 16:34:22 11 17.50 0.055000 41.649648 41.62752893 0 0 0 0 0 0 0 0 STD5.60
2026-05-01 16:29:19 18 17.90 0.090000 41.649648 41.62752893 0 0 0 0 0 0 0 0 STD5.60
2026-05-01 16:24:17 23 17.00 0.115000 41.649648 41.62752893 0 0 0 0 0 0 0 0 STD5.60
2026-05-01 16:19:15 16 18.00 0.080000 41.649648 41.62752893 0 0 0 0 0 0 0 0 STD5.60
2026-05-01 16:14:14 18 20.10 0.090000 41.649648 41.62752893 0 0 0 0 0 0 0 0 STD5.60
2026-05-01 16:09:11 22 19.20 0.110000 41.649648 41.62752893 0 0 0 0 0 0 0 0 STD5.60
2026-05-01 16:04:09 19 17.40 0.095000 41.649648 41.62752893 0 0 0 0 0 0 0 0 STD5.60
2026-05-01 15:59:05 26 16.60 0.130000 41.649648 41.62752893 0 0 0 0 0 0 0 0 STD5.60
2026-05-01 15:54:03 13 16.80 0.065000 41.649648 41.62752893 0 0 0 0 0 0 0 0 STD5.60
2026-05-01 15:49:01 19 17.20 0.095000 41.649648 41.62752893 0 0 0 0 0 0 0 0 STD5.60
2026-05-01 15:43:59 20 17.70 0.100000 41.649648 41.62752893 0 0 0 0 0 0 0 0 STD5.60
2026-05-01 15:38:56 14 19.20 0.070000 41.649648 41.62752893 0 0 0 0 0 0 0 0 STD5.60
2026-05-01 15:33:54 24 17.60 0.120000 41.649648 41.62752893 0 0 0 0 0 0 0 0 STD5.60
2026-05-01 15:28:52 19 18.20 0.095000 41.649648 41.62752893 0 0 0 0 0 0 0 0 STD5.60
2026-05-01 15:23:50 17 18.00 0.085000 41.649648 41.62752893 0 0 0 0 0 0 0 0 STD5.60
2026-05-01 15:18:48 23 18.50 0.115000 41.649648 41.62752893 0 0 0 0 0 0 0 0 STD5.60
2026-05-01 15:13:46 22 18.40 0.110000 41.649648 41.62752893 0 0 0 0 0 0 0 0 STD5.60
2026-05-01 15:08:44 18 16.60 0.090000 41.649648 41.62752893 0 0 0 0 0 0 0 0 STD5.60
2026-05-01 15:03:42 17 15.60 0.085000 41.649648 41.62752893 0 0 0 0 0 0 0 0 STD5.60
2026-05-01 14:58:38 20 16.70 0.100000 41.649648 41.62752893 0 0 0 0 0 0 0 0 STD5.60
2026-05-01 14:53:36 21 19.20 0.105000 41.649648 41.62752893 0 0 0 0 0 0 0 0 STD5.60
2026-05-01 14:48:33 18 17.90 0.090000 41.649648 41.62752893 0 0 0 0 0 0 0 0 STD5.60
2026-05-01 14:43:31 19 17.90 0.095000 41.649648 41.62752893 0 0 0 0 0 0 0 0 STD5.60
2026-05-01 14:38:29 21 19.10 0.105000 41.649648 41.62752893 0 0 0 0 0 0 0 0 STD5.60
2026-05-01 14:33:27 20 17.40 0.100000 41.649648 41.62752893 0 0 0 0 0 0 0 0 STD5.60
2026-05-01 14:28:25 14 16.00 0.070000 41.649648 41.62752893 0 0 0 0 0 0 0 0 STD5.60
2026-05-01 14:23:23 16 16.10 0.080000 41.649648 41.62752893 0 0 0 0 0 0 0 0 STD5.60
2026-05-01 14:18:21 19 17.00 0.095000 41.649648 41.62752893 0 0 0 0 0 0 0 0 STD5.60
2026-05-01 14:13:19 15 17.20 0.075000 41.649648 41.62752893 0 0 0 0 0 0 0 0 STD5.60
2026-05-01 14:08:16 21 16.80 0.105000 41.649648 41.62752893 0 0 0 0 0 0 0 0 STD5.60
2026-05-01 14:03:14 20 17.10 0.100000 41.649648 41.62752893 0 0 0 0 0 0 0 0 STD5.60
2026-05-01 13:58:10 19 16.70 0.095000 41.649648 41.62752893 0 0 0 0 0 0 0 0 STD5.60
2026-05-01 13:53:08 17 17.90 0.085000 41.649648 41.62752893 0 0 0 0 0 0 0 0 STD5.60
2026-05-01 13:48:06 21 16.70 0.105000 41.649648 41.62752893 0 0 0 0 0 0 0 0 STD5.60
2026-05-01 13:43:04 9 16.00 0.045000 41.649648 41.62752893 0 0 0 0 0 0 0 0 STD5.60
2026-05-01 13:38:02 16 17.60 0.080000 41.649648 41.62752893 0 0 0 0 0 0 0 0 STD5.60
2026-05-01 13:33:00 19 17.60 0.095000 41.649648 41.62752893 0 0 0 0 0 0 0 0 STD5.60
2026-05-01 13:27:57 20 17.30 0.100000 41.649648 41.62752893 0 0 0 0 0 0 0 0 STD5.60
2026-05-01 13:22:55 12 17.50 0.060000 41.649648 41.62752893 0 0 0 0 0 0 0 0 STD5.60
2026-05-01 13:17:53 20 17.80 0.100000 41.649648 41.62752893 0 0 0 0 0 0 0 0 STD5.60
2026-05-01 13:12:51 11 18.60 0.055000 41.649648 41.62752893 0 0 0 0 0 0 0 0 STD5.60
2026-05-01 13:07:49 20 20.50 0.100000 41.649648 41.62752893 0 0 0 0 0 0 0 0 STD5.60
2026-05-01 13:02:47 18 20.40 0.090000 41.649648 41.62752893 0 0 0 0 0 0 0 0 STD5.60
2026-05-01 12:57:43 16 16.50 0.080000 41.649648 41.62752893 0 0 0 0 0 0 0 0 STD5.60
2026-05-01 12:52:41 13 15.60 0.065000 41.649648 41.62752893 0 0 0 0 0 0 0 0 STD5.60
2026-05-01 12:47:39 19 17.60 0.095000 41.649648 41.62752893 0 0 0 0 0 0 0 0 STD5.60
2026-05-01 12:42:37 23 17.40 0.115000 41.649648 41.62752893 0 0 0 0 0 0 0 0 STD5.60
2026-05-01 12:37:35 11 18.70 0.055000 41.649648 41.62752893 0 0 0 0 0 0 0 0 STD5.60
2026-05-01 12:32:32 17 18.40 0.085000 41.649648 41.62752893 0 0 0 0 0 0 0 0 STD5.60
2026-05-01 12:27:30 15 16.50 0.075000 41.649648 41.62752893 0 0 0 0 0 0 0 0 STD5.60
2026-05-01 12:22:28 16 18.80 0.080000 41.649648 41.62752893 0 0 0 0 0 0 0 0 STD5.60
2026-05-01 12:17:26 24 17.80 0.120000 41.649648 41.62752893 0 0 0 0 0 0 0 0 STD5.60
2026-05-01 12:12:24 22 17.80 0.110000 41.649648 41.62752893 0 0 0 0 0 0 0 0 STD5.60
2026-05-01 12:07:22 23 19.70 0.115000 41.649648 41.62752893 0 0 0 0 0 0 0 0 STD5.60
2026-05-01 12:02:20 23 19.20 0.115000 41.649648 41.62752893 0 0 0 0 0 0 0 0 STD5.60
2026-05-01 11:57:16 23 17.50 0.115000 41.649648 41.62752893 0 0 0 0 0 0 0 0 STD5.60
2026-05-01 11:52:14 18 17.80 0.090000 41.649648 41.62752893 0 0 0 0 0 0 0 0 STD5.60
2026-05-01 11:47:12 32 21.40 0.160000 41.649648 41.62752893 0 0 0 0 0 0 0 0 STD5.60
2026-05-01 11:42:10 20 21.40 0.100000 41.649648 41.62752893 0 0 0 0 0 0 0 0 STD5.60
2026-05-01 11:37:07 24 17.50 0.120000 41.649648 41.62752893 0 0 0 0 0 0 0 0 STD5.60
2026-05-01 11:32:05 13 15.90 0.065000 41.649648 41.62752893 0 0 0 0 0 0 0 0 STD5.60
2026-05-01 11:27:03 16 18.30 0.080000 41.649648 41.62752893 0 0 0 0 0 0 0 0 STD5.60
2026-05-01 11:22:01 14 17.70 0.070000 41.649648 41.62752893 0 0 0 0 0 0 0 0 STD5.60
2026-05-01 11:16:59 12 16.10 0.060000 41.649648 41.62752893 0 0 0 0 0 0 0 0 STD5.60
2026-05-01 11:11:57 18 16.50 0.090000 41.649648 41.62752893 0 0 0 0 0 0 0 0 STD5.60
2026-05-01 11:06:55 17 16.90 0.085000 41.649648 41.62752893 0 0 0 0 0 0 0 0 STD5.60
2026-05-01 11:01:57 9 19.00 0.045000 41.649648 41.62752893 0 0 0 0 0 0 0 0 STD5.60
2026-05-01 10:56:49 19 17.30 0.095000 41.649648 41.62752893 0 0 0 0 0 0 0 0 STD5.60
2026-05-01 10:51:47 15 15.30 0.075000 41.649648 41.62752893 0 0 0 0 0 0 0 0 STD5.60
2026-05-01 10:46:44 16 17.20 0.080000 41.649648 41.62752893 0 0 0 0 0 0 0 0 STD5.60
2026-05-01 10:41:42 19 20.00 0.095000 41.649648 41.62752893 0 0 0 0 0 0 0 0 STD5.60
2026-05-01 10:36:40 27 19.60 0.135000 41.649648 41.62752893 0 0 0 0 0 0 0 0 STD5.60
2026-05-01 10:31:38 12 16.80 0.060000 41.649648 41.62752893 0 0 0 0 0 0 0 0 STD5.60
2026-05-01 10:26:35 21 17.30 0.105000 41.649648 41.62752893 0 0 0 0 0 0 0 0 STD5.60
2026-05-01 10:21:33 25 18.40 0.125000 41.649648 41.62752893 0 0 0 0 0 0 0 0 STD5.60
2026-05-01 10:16:31 23 18.30 0.115000 41.649648 41.62752893 0 0 0 0 0 0 0 0 STD5.60
2026-05-01 10:11:29 19 17.50 0.095000 41.649648 41.62752893 0 0 0 0 0 0 0 0 STD5.60
2026-05-01 10:06:27 17 18.50 0.085000 41.649648 41.62752893 0 0 0 0 0 0 0 0 STD5.60
2026-05-01 10:01:25 27 18.80 0.135000 41.649648 41.62752893 0 0 0 0 0 0 0 0 STD5.60
2026-05-01 09:56:21 11 17.80 0.055000 41.649648 41.62752893 0 0 0 0 0 0 0 0 STD5.60
2026-05-01 09:51:19 8 19.10 0.040000 41.649648 41.62752893 0 0 0 0 0 0 0 0 STD5.60
2026-05-01 09:46:16 20 19.60 0.100000 41.649648 41.62752893 0 0 0 0 0 0 0 0 STD5.60
2026-05-01 09:41:15 17 17.00 0.085000 41.649648 41.62752893 0 0 0 0 0 0 0 0 STD5.60
2026-05-01 09:36:12 19 15.50 0.095000 41.649648 41.62752893 0 0 0 0 0 0 0 0 STD5.60
2026-05-01 09:31:10 16 17.40 0.080000 41.649648 41.62752893 0 0 0 0 0 0 0 0 STD5.60
2026-05-01 09:26:08 16 18.60 0.080000 41.649648 41.62752893 0 0 0 0 0 0 0 0 STD5.60
2026-05-01 09:21:06 26 16.70 0.130000 41.649648 41.62752893 0 0 0 0 0 0 0 0 STD5.60
2026-05-01 09:16:04 14 18.20 0.070000 41.649648 41.62752893 0 0 0 0 0 0 0 0 STD5.60
2026-05-01 09:11:02 18 18.80 0.090000 41.649648 41.62752893 0 0 0 0 0 0 0 0 STD5.60
2026-05-01 09:05:59 14 17.50 0.070000 41.649648 41.62752893 0 0 0 0 0 0 0 0 STD5.60
2026-05-01 09:00:55 18 19.60 0.090000 41.649648 41.62752893 0 0 0 0 0 0 0 0 STD5.60
2026-05-01 08:55:53 11 19.00 0.055000 41.649648 41.62752893 0 0 0 0 0 0 0 0 STD5.60
2026-05-01 08:50:51 19 17.60 0.095000 41.649648 41.62752893 0 0 0 0 0 0 0 0 STD5.60
2026-05-01 08:45:48 12 18.00 0.060000 41.649648 41.62752893 0 0 0 0 0 0 0 0 STD5.60
2026-05-01 08:40:46 15 18.60 0.075000 41.649648 41.62752893 0 0 0 0 0 0 0 0 STD5.60
2026-05-01 08:35:44 21 19.50 0.105000 41.649648 41.62752893 0 0 0 0 0 0 0 0 STD5.60
2026-05-01 08:30:42 23 18.90 0.115000 41.649648 41.62752893 0 0 0 0 0 0 0 0 STD5.60
2026-05-01 08:25:39 26 17.20 0.130000 41.649648 41.62752893 0 0 0 0 0 0 0 0 STD5.60
2026-05-01 08:20:37 13 17.60 0.065000 41.649648 41.62752893 0 0 0 0 0 0 0 0 STD5.60
2026-05-01 08:15:35 24 19.70 0.120000 41.649648 41.62752893 0 0 0 0 0 0 0 0 STD5.60
2026-05-01 08:10:33 22 16.80 0.110000 41.649648 41.62752893 0 0 0 0 0 0 0 0 STD5.60
2026-05-01 08:05:30 14 6.80 0.070000 41.649648 41.62752893 0 0 0 0 0 0 0 0 STD5.60
2026-05-01 08:00:29 12 17.20 0.060000 41.649648 41.62752893 0 0 0 0 0 0 0 0 STD5.60
2026-05-01 07:55:24 16 17.20 0.080000 41.649648 41.62752893 0 0 0 0 0 0 0 0 STD5.60
2026-05-01 07:50:22 19 19.20 0.095000 41.649648 41.62752893 0 0 0 0 0 0 0 0 STD5.60
2026-05-01 07:45:20 21 19.00 0.105000 41.649648 41.62752893 0 0 0 0 0 0 0 0 STD5.60
2026-05-01 07:40:19 11 16.70 0.055000 41.649648 41.62752893 0 0 0 0 0 0 0 0 STD5.60
2026-05-01 07:35:17 14 17.40 0.070000 41.649648 41.62752893 0 0 0 0 0 0 0 0 STD5.60
2026-05-01 07:30:14 23 17.10 0.115000 41.649648 41.62752893 0 0 0 0 0 0 0 0 STD5.60
2026-05-01 07:25:13 16 17.40 0.080000 41.649648 41.62752893 0 0 0 0 0 0 0 0 STD5.60
2026-05-01 07:20:11 21 17.40 0.105000 41.649648 41.62752893 0 0 0 0 0 0 0 0 STD5.60
2026-05-01 07:15:09 14 16.50 0.070000 41.649648 41.62752893 0 0 0 0 0 0 0 0 STD5.60
2026-05-01 07:10:07 17 18.00 0.085000 41.649648 41.62752893 0 0 0 0 0 0 0 0 STD5.60
2026-05-01 07:05:05 24 20.30 0.120000 41.649648 41.62752893 0 0 0 0 0 0 0 0 STD5.60
2026-05-01 07:00:01 25 20.20 0.125000 41.649648 41.62752893 0 0 0 0 0 0 0 0 STD5.60
2026-05-01 06:54:59 25 19.00 0.125000 41.649648 41.62752893 0 0 0 0 0 0 0 0 STD5.60
2026-05-01 06:49:57 22 19.20 0.110000 41.649648 41.62752893 0 0 0 0 0 0 0 0 STD5.60
2026-05-01 06:44:55 21 17.70 0.105000 41.649648 41.62752893 0 0 0 0 0 0 0 0 STD5.60
2026-05-01 06:39:53 12 18.70 0.060000 41.649648 41.62752893 0 0 0 0 0 0 0 0 STD5.60
2026-05-01 06:34:51 27 21.40 0.135000 41.649648 41.62752893 0 0 0 0 0 0 0 0 STD5.60
2026-05-01 06:29:49 23 21.10 0.115000 41.649648 41.62752893 0 0 0 0 0 0 0 0 STD5.60
2026-05-01 06:24:47 22 19.00 0.110000 41.649648 41.62752893 0 0 0 0 0 0 0 0 STD5.60
2026-05-01 06:19:45 17 18.40 0.085000 41.649648 41.62752893 0 0 0 0 0 0 0 0 STD5.60
2026-05-01 06:14:42 18 19.10 0.090000 41.649648 41.62752893 0 0 0 0 0 0 0 0 STD5.60
2026-05-01 06:09:41 18 19.00 0.090000 41.649648 41.62752893 0 0 0 0 0 0 0 0 STD5.60
2026-05-01 06:04:39 14 18.70 0.070000 41.649648 41.62752893 0 0 0 0 0 0 0 0 STD5.60
2026-05-01 05:59:35 16 16.40 0.080000 41.649648 41.62752893 0 0 0 0 0 0 0 0 STD5.60
2026-05-01 05:54:33 13 16.40 0.065000 41.649648 41.62752893 0 0 0 0 0 0 0 0 STD5.60
2026-05-01 05:49:31 23 19.20 0.115000 41.649648 41.62752893 0 0 0 0 0 0 0 0 STD5.60
2026-05-01 05:44:29 17 18.60 0.085000 41.649648 41.62752893 0 0 0 0 0 0 0 0 STD5.60
2026-05-01 05:39:30 12 16.40 0.060000 41.649648 41.62752893 0 0 0 0 0 0 0 0 STD5.60
2026-05-01 05:34:25 11 17.20 0.055000 41.649648 41.62752893 0 0 0 0 0 0 0 0 STD5.60
2026-05-01 05:29:23 21 16.60 0.105000 41.649648 41.62752893 0 0 0 0 0 0 0 0 STD5.60
2026-05-01 05:24:21 13 16.70 0.065000 41.649648 41.62752893 0 0 0 0 0 0 0 0 STD5.60
2026-05-01 05:19:19 18 20.00 0.090000 41.649648 41.62752893 0 0 0 0 0 0 0 0 STD5.60
2026-05-01 05:14:17 21 20.10 0.105000 41.649648 41.62752893 0 0 0 0 0 0 0 0 STD5.60
2026-05-01 05:09:16 24 16.10 0.120000 41.649648 41.62752893 0 0 0 0 0 0 0 0 STD5.60
2026-05-01 05:04:14 15 15.10 0.075000 41.649648 41.62752893 0 0 0 0 0 0 0 0 STD5.60
2026-05-01 04:59:10 13 18.00 0.065000 41.649648 41.62752893 0 0 0 0 0 0 0 0 STD5.60
2026-05-01 04:54:08 27 18.40 0.135000 41.649648 41.62752893 0 0 0 0 0 0 0 0 STD5.60
2026-05-01 04:49:06 18 18.80 0.090000 41.649648 41.62752893 0 0 0 0 0 0 0 0 STD5.60
2026-05-01 04:44:04 19 17.90 0.095000 41.649648 41.62752893 0 0 0 0 0 0 0 0 STD5.60
2026-05-01 04:39:02 17 16.00 0.085000 41.649648 41.62752893 0 0 0 0 0 0 0 0 STD5.60
2026-05-01 04:34:00 16 15.90 0.080000 41.649648 41.62752893 0 0 0 0 0 0 0 0 STD5.60
2026-05-01 04:28:58 17 19.30 0.085000 41.649648 41.62752893 0 0 0 0 0 0 0 0 STD5.60
2026-05-01 04:23:56 14 20.00 0.070000 41.649648 41.62752893 0 0 0 0 0 0 0 0 STD5.60
2026-05-01 04:18:54 17 17.60 0.085000 41.649648 41.62752893 0 0 0 0 0 0 0 0 STD5.60
2026-05-01 04:13:52 15 18.30 0.075000 41.649648 41.62752893 0 0 0 0 0 0 0 0 STD5.60
2026-05-01 04:08:50 16 18.60 0.080000 41.649648 41.62752893 0 0 0 0 0 0 0 0 STD5.60
2026-05-01 04:03:48 18 18.70 0.090000 41.649648 41.62752893 0 0 0 0 0 0 0 0 STD5.60
2026-05-01 03:58:44 14 18.10 0.070000 41.649648 41.62752893 0 0 0 0 0 0 0 0 STD5.60
2026-05-01 03:53:42 18 17.80 0.090000 41.649648 41.62752893 0 0 0 0 0 0 0 0 STD5.60
2026-05-01 03:48:41 19 18.70 0.095000 41.649648 41.62752893 0 0 0 0 0 0 0 0 STD5.60
2026-05-01 03:43:39 20 18.10 0.100000 41.649648 41.62752893 0 0 0 0 0 0 0 0 STD5.60
2026-05-01 03:38:37 15 18.50 0.075000 41.649648 41.62752893 0 0 0 0 0 0 0 0 STD5.60
2026-05-01 03:33:35 16 18.80 0.080000 41.649648 41.62752893 0 0 0 0 0 0 0 0 STD5.60
2026-05-01 03:28:33 22 18.80 0.110000 41.649648 41.62752893 0 0 0 0 0 0 0 0 STD5.60
2026-05-01 03:23:31 15 17.50 0.075000 41.649648 41.62752893 0 0 0 0 0 0 0 0 STD5.60
2026-05-01 03:18:29 12 15.00 0.060000 41.649648 41.62752893 0 0 0 0 0 0 0 0 STD5.60
2026-05-01 03:13:27 11 15.90 0.055000 41.649648 41.62752893 0 0 0 0 0 0 0 0 STD5.60
2026-05-01 03:08:26 17 15.70 0.085000 41.649648 41.62752893 0 0 0 0 0 0 0 0 STD5.60
2026-05-01 03:03:23 21 17.50 0.105000 41.649648 41.62752893 0 0 0 0 0 0 0 0 STD5.60
2026-05-01 02:58:19 16 19.20 0.080000 41.649648 41.62752893 0 0 0 0 0 0 0 0 STD5.60
2026-05-01 02:53:18 16 16.80 0.080000 41.649648 41.62752893 0 0 0 0 0 0 0 0 STD5.60
2026-05-01 02:48:16 17 15.50 0.085000 41.649648 41.62752893 0 0 0 0 0 0 0 0 STD5.60
2026-05-01 02:43:14 10 17.70 0.050000 41.649648 41.62752893 0 0 0 0 0 0 0 0 STD5.60
2026-05-01 02:38:12 28 19.60 0.140000 41.649648 41.62752893 0 0 0 0 0 0 0 0 STD5.60
2026-05-01 02:33:10 26 19.40 0.130000 41.649648 41.62752893 0 0 0 0 0 0 0 0 STD5.60
2026-05-01 02:28:08 17 19.60 0.085000 41.649648 41.62752893 0 0 0 0 0 0 0 0 STD5.60
2026-05-01 02:23:06 18 18.80 0.090000 41.649648 41.62752893 0 0 0 0 0 0 0 0 STD5.60
2026-05-01 02:18:03 18 18.00 0.090000 41.649648 41.62752893 0 0 0 0 0 0 0 0 STD5.60
2026-05-01 02:13:01 15 16.40 0.075000 41.649648 41.62752893 0 0 0 0 0 0 0 0 STD5.60
2026-05-01 02:07:59 14 16.80 0.070000 41.649648 41.62752893 0 0 0 0 0 0 0 0 STD5.60
2026-05-01 02:02:57 25 18.50 0.125000 41.649648 41.62752893 0 0 0 0 0 0 0 0 STD5.60
2026-05-01 01:57:53 20 17.80 0.100000 41.649648 41.62752893 0 0 0 0 0 0 0 0 STD5.60
2026-05-01 01:52:51 15 17.90 0.075000 41.649648 41.62752893 0 0 0 0 0 0 0 0 STD5.60
2026-05-01 01:47:49 19 20.90 0.095000 41.649648 41.62752893 0 0 0 0 0 0 0 0 STD5.60
2026-05-01 01:42:47 28 21.70 0.140000 41.649648 41.62752893 0 0 0 0 0 0 0 0 STD5.60
2026-05-01 01:37:46 24 22.50 0.120000 41.649648 41.62752893 0 0 0 0 0 0 0 0 STD5.60
2026-05-01 01:32:44 23 21.10 0.115000 41.649648 41.62752893 0 0 0 0 0 0 0 0 STD5.60
2026-05-01 01:27:42 11 15.40 0.055000 41.649648 41.62752893 0 0 0 0 0 0 0 0 STD5.60
2026-05-01 01:22:40 10 14.80 0.050000 41.649648 41.62752893 0 0 0 0 0 0 0 0 STD5.60
2026-05-01 01:17:38 15 16.30 0.075000 41.649648 41.62752893 0 0 0 0 0 0 0 0 STD5.60
2026-05-01 01:12:36 11 17.50 0.055000 41.649648 41.62752893 0 0 0 0 0 0 0 0 STD5.60
2026-05-01 01:07:35 18 18.60 0.090000 41.649648 41.62752893 0 0 0 0 0 0 0 0 STD5.60
2026-05-01 01:02:32 24 19.80 0.120000 41.649648 41.62752893 0 0 0 0 0 0 0 0 STD5.60
2026-05-01 00:57:28 27 20.40 0.135000 41.649648 41.62752893 0 0 0 0 0 0 0 0 STD5.60
2026-05-01 00:52:27 21 18.60 0.105000 41.649648 41.62752893 0 0 0 0 0 0 0 0 STD5.60
2026-05-01 00:47:25 14 16.90 0.070000 41.649648 41.62752893 0 0 0 0 0 0 0 0 STD5.60
2026-05-01 00:42:23 12 17.20 0.060000 41.649648 41.62752893 0 0 0 0 0 0 0 0 STD5.60
2026-05-01 00:37:21 20 18.90 0.100000 41.649648 41.62752893 0 0 0 0 0 0 0 0 STD5.60
2026-05-01 00:32:19 17 20.60 0.085000 41.649648 41.62752893 0 0 0 0 0 0 0 0 STD5.60
2026-05-01 00:27:17 17 18.90 0.085000 41.649648 41.62752893 0 0 0 0 0 0 0 0 STD5.60
2026-05-01 00:22:15 16 17.80 0.080000 41.649648 41.62752893 0 0 0 0 0 0 0 0 STD5.60
2026-05-01 00:17:13 19 19.00 0.095000 41.649648 41.62752893 0 0 0 0 0 0 0 0 STD5.60
2026-05-01 00:12:11 16 17.00 0.080000 41.649648 41.62752893 0 0 0 0 0 0 0 0 STD5.60
2026-05-01 00:07:09 10 17.40 0.050000 41.649648 41.62752893 0 0 0 0 0 0 0 0 STD5.60
2026-05-01 00:02:07 27 18.00 0.135000 41.649648 41.62752893 0 0 0 0 0 0 0 0 STD5.60
2026-04-30 23:57:03 12 16.80 0.060000 41.649648 41.62752893 0 0 0 0 0 0 0 0 STD5.60
2026-04-30 23:52:01 15 16.90 0.075000 41.649648 41.62752893 0 0 0 0 0 0 0 0 STD5.60
2026-04-30 23:46:59 15 17.20 0.075000 41.649648 41.62752893 0 0 0 0 0 0 0 0 STD5.60
2026-04-30 23:41:57 8 20.40 0.040000 41.649648 41.62752893 0 0 0 0 0 0 0 0 STD5.60
2026-04-30 23:36:55 20 19.60 0.100000 41.649648 41.62752893 0 0 0 0 0 0 0 0 STD5.60
2026-04-30 23:31:53 19 17.40 0.095000 41.649648 41.62752893 0 0 0 0 0 0 0 0 STD5.60
2026-04-30 23:26:51 17 17.70 0.085000 41.649648 41.62752893 0 0 0 0 0 0 0 0 STD5.60
2026-04-30 23:21:49 18 18.30 0.090000 41.649648 41.62752893 0 0 0 0 0 0 0 0 STD5.60
2026-04-30 23:16:47 28 18.60 0.140000 41.649648 41.62752893 0 0 0 0 0 0 0 0 STD5.60
2026-04-30 23:11:45 21 17.20 0.105000 41.649648 41.62752893 0 0 0 0 0 0 0 0 STD5.60
2026-04-30 23:06:44 26 17.10 0.130000 41.649648 41.62752893 0 0 0 0 0 0 0 0 STD5.60
2026-04-30 23:01:42 15 17.10 0.075000 41.649648 41.62752893 0 0 0 0 0 0 0 0 STD5.60
2026-04-30 22:56:38 20 18.30 0.100000 41.649648 41.62752893 0 0 0 0 0 0 0 0 STD5.60
2026-04-30 22:51:36 17 17.00 0.085000 41.649648 41.62752893 0 0 0 0 0 0 0 0 STD5.60
2026-04-30 22:46:34 10 17.70 0.050000 41.649648 41.62752893 0 0 0 0 0 0 0 0 STD5.60
2026-04-30 22:41:33 15 19.40 0.075000 41.649648 41.62752893 0 0 0 0 0 0 0 0 STD5.60
2026-04-30 22:36:30 23 19.40 0.115000 41.649648 41.62752893 0 0 0 0 0 0 0 0 STD5.60
2026-04-30 22:31:28 24 18.60 0.120000 41.649648 41.62752893 0 0 0 0 0 0 0 0 STD5.60
2026-04-30 22:26:27 14 17.60 0.070000 41.649648 41.62752893 0 0 0 0 0 0 0 0 STD5.60
2026-04-30 22:16:23 15 18.30 0.075000 41.649648 41.62752893 0 0 0 0 0 0 0 0 STD5.60
2026-04-30 22:11:20 15 17.90 0.075000 41.649648 41.62752893 0 0 0 0 0 0 0 0 STD5.60
2026-04-30 22:06:19 13 17.80 0.065000 41.649648 41.62752893 0 0 0 0 0 0 0 0 STD5.60
2026-04-30 22:01:17 20 16.90 0.100000 41.649648 41.62752893 0 0 0 0 0 0 0 0 STD5.60
2026-04-30 21:56:13 12 17.60 0.060000 41.649648 41.62752893 0 0 0 0 0 0 0 0 STD5.60
2026-04-30 21:51:11 21 20.20 0.105000 41.649648 41.62752893 0 0 0 0 0 0 0 0 STD5.60
2026-04-30 21:46:09 19 18.50 0.095000 41.649648 41.62752893 0 0 0 0 0 0 0 0 STD5.60
2026-04-30 21:41:07 15 16.10 0.075000 41.649648 41.62752893 0 0 0 0 0 0 0 0 STD5.60
2026-04-30 21:36:05 18 16.50 0.090000 41.649648 41.62752893 0 0 0 0 0 0 0 0 STD5.60
2026-04-30 21:31:03 20 17.90 0.100000 41.649648 41.62752893 0 0 0 0 0 0 0 0 STD5.60
2026-04-30 21:26:01 13 18.30 0.065000 41.649648 41.62752893 0 0 0 0 0 0 0 0 STD5.60
Geiger Counter World Map       A real time radiation map.     Copyright 2015 All rights reserved.